Location: Newark
(49.3808°N, 3.1844°E)
Time: 17:59:06
(UTC+00:00)

A-11 Canister half - All Passes

Search period start: 15 November 2019 00:00
Search period end: 25 November 2019 00:00
Orbit: 1514 x 1686 km, 47.2° (Epoch: 13 November)

Date Brightness Start Highest point End Pass type
(mag) Time Alt. Az. Time Alt. Az. Time Alt. Az.
15 Nov - 00:08:07 10° WNW 00:17:54 56° SSW 00:27:24 10° SE night (unlit)
15 Nov - 02:14:05 10° W 02:21:15 23° SW 02:28:17 10° S night (unlit)
15 Nov - 17:32:58 10° SSW 17:41:33 33° SE 17:50:12 10° ENE visible
15 Nov - 19:35:26 10° WSW 19:45:27 67° SSE 19:55:28 10° E visible
15 Nov - 21:40:07 10° W 21:50:20 80° S 22:00:22 10° E visible
15 Nov - 23:45:09 10° WNW 23:55:00 58° SSW 00:04:34 10° SE night (unlit)
16 Nov - 01:50:58 10° W 01:58:26 25° SW 02:05:45 10° S night (unlit)
16 Nov - 17:10:17 10° SSW 17:18:42 32° SE 17:27:11 10° E visible
16 Nov - 19:12:32 10° SW 19:22:31 65° SSE 19:32:31 10° E visible
16 Nov - 21:17:09 10° W 21:27:23 80° S 21:37:26 10° E visible
16 Nov - 23:22:11 10° WNW 23:32:05 60° SSW 23:41:44 10° SE visible
17 Nov - 01:27:53 10° W 01:35:37 26° SW 01:43:11 10° S night (unlit)
17 Nov - 16:47:38 10° S 16:55:51 30° SE 17:04:09 10° E visible
17 Nov - 18:49:39 10° SW 18:59:37 63° SSE 19:09:34 10° E visible
17 Nov - 20:54:12 10° W 21:04:25 80° S 21:14:30 10° E visible
17 Nov - 22:59:13 10° W 23:09:11 61° SSW 23:18:53 10° SE visible
18 Nov - 01:04:49 10° W 01:12:48 28° SW 01:20:36 10° S night (unlit)
18 Nov - 16:25:00 10° S 16:33:00 28° SE 16:41:06 10° E visible
18 Nov - 18:26:46 10° SW 18:36:41 62° SSE 18:46:37 10° E visible
18 Nov - 20:31:15 10° W 20:41:28 80° S 20:51:34 10° E visible
18 Nov - 22:36:16 10° W 22:46:15 63° SSW 22:56:02 10° SE visible
19 Nov - 00:41:46 10° W 00:49:57 29° SW 00:57:59 10° S night (unlit)
19 Nov - 16:02:23 10° S 16:10:10 27° SE 16:18:03 10° E daylight
19 Nov - 18:03:55 10° SW 18:13:45 60° SSE 18:23:40 10° ENE visible
19 Nov - 20:08:18 10° W 20:18:30 80° S 20:28:38 10° E visible
19 Nov - 22:13:18 10° W 22:23:20 65° SSW 22:33:10 10° SE visible
20 Nov - 00:18:43 10° W 00:27:07 31° SW 00:35:20 10° SSE night (unlit)
20 Nov - 15:39:47 10° S 15:47:21 25° SE 15:54:58 10° E daylight
20 Nov - 17:41:04 10° SW 17:50:50 58° SSE 18:00:43 10° ENE visible
20 Nov - 19:45:21 10° W 19:55:33 80° S 20:05:42 10° E visible
20 Nov - 21:50:21 10° W 22:00:24 67° SSW 22:10:17 10° ESE visible
20 Nov - 23:55:41 10° WNW 00:04:16 33° SW 00:12:41 10° SSE night (unlit)
21 Nov - 15:17:14 10° S 15:24:30 23° SE 15:31:53 10° E daylight
21 Nov - 17:18:13 10° SW 17:27:56 56° SSE 17:37:46 10° ENE visible
21 Nov - 19:22:24 10° W 19:32:35 80° S 19:42:45 10° E visible
21 Nov - 21:27:23 10° W 21:37:28 68° SSW 21:47:24 10° ESE visible
21 Nov - 23:32:40 10° WNW 23:41:25 35° SW 23:50:00 10° SSE visible
22 Nov - 14:54:43 10° S 15:01:41 22° SE 15:08:45 10° E daylight
22 Nov - 16:55:23 10° SW 17:05:01 54° SSE 17:14:48 10° ENE visible
22 Nov - 18:59:28 10° WSW 19:09:37 79° S 19:19:48 10° E visible
22 Nov - 21:04:26 10° W 21:14:32 70° SSW 21:24:31 10° ESE visible
22 Nov - 23:09:39 10° WNW 23:18:33 37° SW 23:27:18 10° SSE visible
23 Nov - 14:32:14 10° S 14:38:53 20° SE 14:45:36 10° E daylight
23 Nov - 16:32:33 10° SW 16:42:07 52° SSE 16:51:50 10° ENE visible
23 Nov - 18:36:32 10° WSW 18:46:40 79° S 18:56:51 10° E visible
23 Nov - 20:41:29 10° W 20:51:36 71° SSW 21:01:36 10° ESE visible
23 Nov - 22:46:39 10° WNW 22:55:42 38° SW 23:04:35 10° SSE visible
24 Nov - 00:56:05 10° WSW 00:58:19 11° WSW 01:00:31 10° SW night (unlit)
24 Nov - 14:09:48 10° SSE 14:16:04 19° SE 14:22:26 10° E daylight
24 Nov - 16:09:45 10° SW 16:19:13 50° SSE 16:28:51 10° ENE daylight
24 Nov - 18:13:36 10° WSW 18:23:42 78° S 18:33:53 10° E visible
24 Nov - 20:18:32 10° W 20:28:39 73° SSW 20:38:42 10° ESE visible
24 Nov - 22:23:39 10° WNW 22:32:49 40° SW 22:41:51 10° SSE visible
